Date String (YYYY-MM-DD hh:mm:ss) UTC,Instrument flags,absolute air pressure of the measurement (hPa),sample flow rate (lpm),inlet stack bypass flow (lpm),air temperature of the measurement (°C),ambient temperature measured by the external sensor (°C),aerosol sample conditioner tube jacket temperature (°C),OPC LED temperature (°C),internal box temperature (°C),relative humidity of the measurement (%),span deviation,mass concentration of particles derived from Lorenz-Mie calculation of OPC scattering (μg/m³),mass concentration of particles derived from Lorenz-Mie calculation of OPC scattering (μg/m³),mass concentration of particles derived from Lorenz-Mie calculation of OPC scattering (μg/m³)
DateTimeUTC,F1_M11,P_M11,Q1_M11,Q2_M11,T1_M11,T2_M11,T3_M11,T4_M11,T5_M11,U1_M11,ZSPAN_M11,X0_M11,X2_M11,X1_M11
2024-03-09 04:00:00,SystemResetWarning,0834.1,4.99,000.00,018.8,018.2,000.0,027.3,020.4,17.5,0000.0,0007.66,0005.35,0005.23
2024-03-09 04:01:00,SystemResetWarning,0834.1,5.00,000.00,018.7,017.9,000.0,027.2,020.3,17.7,0000.0,0007.65,0005.34,0005.22
2024-03-09 04:02:00,SystemResetWarning,0834.1,5.01,000.00,018.6,017.7,000.0,027.2,020.1,17.8,0000.0,0007.64,0005.34,0005.22
2024-03-09 04:03:00,SystemResetWarning,0834.1,5.00,000.00,018.5,017.5,000.0,027.2,020.0,17.9,0000.0,0007.51,0005.27,0005.18
2024-03-09 04:04:00,SystemResetWarning,0834.1,4.99,000.00,018.5,017.3,000.0,027.2,020.0,18.0,0000.0,0007.40,0005.25,0005.16
2024-03-09 04:05:00,SystemResetWarning,0834.1,5.00,000.00,018.4,017.2,000.0,027.2,020.0,18.1,0000.0,0007.33,0005.23,0005.14
2024-03-09 04:06:00,SystemResetWarning,0834.1,5.00,000.00,018.4,017.0,000.0,027.2,020.0,18.2,0000.0,0007.28,0005.18,0005.10
2024-03-09 04:07:00,SystemResetWarning,0834.2,5.00,000.00,018.3,016.9,000.0,027.2,020.0,18.2,0000.0,0007.09,0005.14,0005.06
2024-03-09 04:08:00,SystemResetWarning,0834.2,5.01,000.00,018.3,017.4,000.0,027.3,020.2,18.3,0000.0,0006.57,0005.11,0005.02
2024-03-09 04:09:00,SystemResetWarning,0834.2,5.00,000.00,018.6,018.4,000.0,027.3,020.8,18.1,0000.0,0006.61,0005.09,0005.00
2024-03-09 04:10:00,SystemResetWarning,0834.3,5.00,000.00,018.8,018.9,000.0,027.3,021.0,17.9,0000.0,0007.29,0005.08,0004.98
2024-03-09 04:11:00,SystemResetWarning,0834.2,4.99,000.00,018.8,018.6,000.0,027.3,020.7,17.9,0000.0,0007.68,0005.08,0004.98
2024-03-09 04:12:00,SystemResetWarning,0834.2,5.01,000.00,018.7,018.3,000.0,027.2,020.5,17.9,0000.0,0007.78,0005.12,0005.00
2024-03-09 04:13:00,SystemResetWarning,0834.1,5.01,000.00,018.6,018.0,000.0,027.2,020.3,18.0,0000.0,0007.80,0005.14,0005.02
2024-03-09 04:14:00,SystemResetWarning,0834.2,5.00,000.00,018.6,017.8,000.0,027.2,020.1,18.1,0000.0,0007.89,0005.19,0005.06
2024-03-09 04:15:00,SystemResetWarning,0834.1,4.98,000.00,018.5,017.6,000.0,027.1,020.0,18.3,0000.0,0007.89,0005.20,0005.07
2024-03-09 04:16:00,SystemResetWarning,0834.2,4.99,000.00,018.4,017.4,000.0,027.2,020.0,18.4,0000.0,0007.95,0005.24,0005.09
2024-03-09 04:17:00,SystemResetWarning,0834.2,5.02,000.00,018.4,017.2,000.0,027.2,020.0,18.4,0000.0,0008.04,0005.26,0005.10
2024-03-09 04:18:00,SystemResetWarning,0834.2,5.00,000.00,018.3,017.1,000.0,027.2,020.0,18.5,0000.0,0008.12,0005.30,0005.13
2024-03-09 04:19:00,SystemResetWarning,0834.2,4.99,000.00,018.3,017.1,000.0,027.2,020.0,18.5,0000.0,0008.13,0005.32,0005.16
2024-03-09 04:20:00,SystemResetWarning,0834.3,5.00,000.00,018.4,017.8,000.0,027.3,020.4,18.4,0000.0,0008.14,0005.35,0005.19
2024-03-09 04:21:00,SystemResetWarning,0834.5,5.03,000.00,018.6,018.8,000.0,027.3,020.9,18.2,0000.0,0007.88,0005.35,0005.22
2024-03-09 04:22:00,SystemResetWarning,0834.6,4.99,000.00,018.8,019.0,000.0,027.3,021.0,18.0,0000.0,0007.42,0005.37,0005.24
2024-03-09 04:23:00,SystemResetWarning,0834.4,4.98,000.00,018.8,018.7,000.0,027.3,020.8,18.0,0000.0,0007.44,0005.41,0005.25
2024-03-09 04:24:00,SystemResetWarning,0834.7,5.02,000.00,018.7,018.4,000.0,027.2,020.5,18.0,0000.0,0007.49,0005.44,0005.28
2024-03-09 04:25:00,SystemResetWarning,0834.4,5.01,000.00,018.7,018.1,000.0,027.2,020.4,18.1,0000.0,0007.52,0005.46,0005.30
2024-03-09 04:26:00,SystemResetWarning,0834.6,5.01,000.00,018.6,017.9,000.0,027.2,020.2,18.1,0000.0,0007.56,0005.49,0005.33
2024-03-09 04:27:00,SystemResetWarning,0834.5,4.99,000.00,018.5,017.7,000.0,027.1,020.1,18.2,0000.0,0007.55,0005.50,0005.35
2024-03-09 04:28:00,SystemResetWarning,0834.3,4.99,000.00,018.5,017.5,000.0,027.1,020.0,18.3,0000.0,0007.50,0005.51,0005.38
2024-03-09 04:29:00,SystemResetWarning,0834.2,5.00,000.00,018.4,017.4,000.0,027.2,020.0,18.3,0000.0,0007.46,0005.52,0005.39
2024-03-09 04:30:00,SystemResetWarning,0834.2,5.02,000.00,018.4,017.3,000.0,027.2,020.0,18.3,0000.0,0007.52,0005.55,0005.42
2024-03-09 04:31:00,SystemResetWarning,0834.3,4.99,000.00,018.3,017.2,000.0,027.2,020.0,18.3,0000.0,0007.57,0005.59,0005.46
2024-03-09 04:32:00,SystemResetWarning,0834.4,5.00,000.00,018.3,017.1,000.0,027.1,020.0,18.3,0000.0,0007.61,0005.62,0005.48
2024-03-09 04:33:00,SystemResetWarning,0834.4,5.01,000.00,018.3,017.1,000.0,027.2,020.0,18.3,0000.0,0007.66,0005.66,0005.50
2024-03-09 04:34:00,SystemResetWarning,0834.5,5.00,000.00,018.4,017.9,000.0,027.2,020.4,18.2,0000.0,0007.69,0005.68,0005.54
2024-03-09 04:35:00,SystemResetWarning,0834.4,5.00,000.00,018.6,018.8,000.0,027.3,020.9,18.0,0000.0,0007.65,0005.69,0005.55
2024-03-09 04:36:00,SystemResetWarning,0834.5,4.99,000.00,018.8,018.8,000.0,027.3,020.9,17.8,0000.0,0007.72,0005.72,0005.57
2024-03-09 04:37:00,SystemResetWarning,0834.3,5.00,000.00,018.8,018.6,000.0,027.2,020.7,17.8,0000.0,0007.78,0005.75,0005.59
2024-03-09 04:38:00,SystemResetWarning,0834.2,4.99,000.00,018.7,018.4,000.0,027.2,020.5,17.8,0000.0,0007.81,0005.78,0005.61
2024-03-09 04:39:00,SystemResetWarning,0834.2,5.02,000.00,018.7,018.1,000.0,027.2,020.3,17.9,0000.0,0007.85,0005.80,0005.62
2024-03-09 04:40:00,SystemResetWarning,0834.2,5.00,000.00,018.6,017.8,000.0,027.1,020.2,17.9,0000.0,0007.89,0005.82,0005.63
2024-03-09 04:41:00,SystemResetWarning,0834.2,5.00,000.00,018.5,017.6,000.0,027.1,020.0,18.0,0000.0,0007.85,0005.81,0005.62
2024-03-09 04:42:00,SystemResetWarning,0834.2,5.00,000.00,018.4,017.3,000.0,027.1,020.0,18.1,0000.0,0007.81,0005.79,0005.60
2024-03-09 04:43:00,SystemResetWarning,0834.2,4.99,000.00,018.4,017.2,000.0,027.1,020.0,18.1,0000.0,0007.80,0005.77,0005.59
2024-03-09 04:44:00,SystemResetWarning,0834.2,4.99,000.00,018.3,017.1,000.0,027.1,020.0,18.2,0000.0,0007.74,0005.73,0005.55
2024-03-09 04:45:00,SystemResetWarning,0834.2,5.01,000.00,018.3,017.0,000.0,027.2,020.0,18.2,0000.0,0007.70,0005.70,0005.53
2024-03-09 04:46:00,SystemResetWarning,0834.2,5.01,000.00,018.4,017.5,000.0,027.2,020.3,18.2,0000.0,0007.67,0005.67,0005.50
2024-03-09 04:47:00,SystemResetWarning,0834.2,5.00,000.00,018.6,018.6,000.0,027.3,020.8,18.0,0000.0,0007.56,0005.62,0005.48
2024-03-09 04:48:00,SystemResetWarning,0834.3,5.00,000.00,018.8,018.8,000.0,027.3,021.0,17.8,0000.0,0007.47,0005.58,0005.46
2024-03-09 04:49:00,SystemResetWarning,0834.2,4.97,000.00,018.8,018.6,000.0,027.2,020.7,17.8,0000.0,0007.42,0005.55,0005.43
2024-03-09 04:50:00,SystemResetWarning,0834.3,5.00,000.00,018.7,018.3,000.0,027.2,020.4,17.8,0000.0,0007.41,0005.53,0005.40
2024-03-09 04:51:00,SystemResetWarning,0834.2,5.00,000.00,018.6,018.0,000.0,027.2,020.2,17.9,0000.0,0007.41,0005.51,0005.38
2024-03-09 04:52:00,SystemResetWarning,0834.2,5.00,000.00,018.5,017.7,000.0,027.1,020.1,18.0,0000.0,0007.42,0005.51,0005.37
2024-03-09 04:53:00,SystemResetWarning,0834.2,5.00,000.00,018.4,017.4,000.0,027.1,020.0,18.1,0000.0,0007.41,0005.51,0005.36
2024-03-09 04:54:00,SystemResetWarning,0834.2,5.00,000.00,018.4,017.2,000.0,027.2,020.0,18.1,0000.0,0007.41,0005.50,0005.36
2024-03-09 04:55:00,SystemResetWarning,0834.3,5.01,000.00,018.3,017.1,000.0,027.2,020.0,18.2,0000.0,0007.43,0005.52,0005.37
2024-03-09 04:56:00,SystemResetWarning,0834.2,5.01,000.00,018.3,017.0,000.0,027.2,020.0,18.2,0000.0,0007.41,0005.51,0005.37
2024-03-09 04:57:00,SystemResetWarning,0834.2,5.00,000.00,018.4,017.9,000.0,027.3,020.4,18.2,0000.0,0007.43,0005.51,0005.37
2024-03-09 04:58:00,SystemResetWarning,0834.4,4.99,000.00,018.7,018.9,000.0,027.3,021.0,17.9,0000.0,0007.46,0005.52,0005.37
2024-03-09 04:59:00,SystemResetWarning,0834.5,4.99,000.00,018.9,019.3,000.0,027.3,021.2,17.6,0000.0,0007.43,0005.52,0005.38
